Regional Weather Roundup
Issued by NWS Green Bay, WI

Home | Current Version | Previous Version | Text Only | Print | Product List | Glossary On
Versions: 1 2 3 4 5 6 7 8 9 10 11 12 13 14 15 16 17 18 19 20 21 22 23 24 25 26 27 28 29 30 31 32 33 34 35 36 37 38 39 40 41 42 43 44 45 46 47 48 49 50
000
ASUS43 KGRB 280311
RWRGRB

NORTH-CENTRAL AND NORTHEAST WISCONSIN REGIONAL WEATHER ROUNDUP
NATIONAL WEATHER SERVICE GREEN BAY WI
1000 PM CDT MON JUL 27 2015

WIZ005-009-010>012-018-019-280400-
NORTH CENTRAL WISCONSIN

CITY           SKY/WX    TMP DP  RH WIND       PRES   REMARKS
IRONWOOD       CLEAR     72  61  68 S5        29.97S
MANITOWISH WTR CLEAR     67  65  93 CALM      30.03R
ARBOR VITAE    CLEAR     72  63  73 SE3       30.04R
EAGLE RIVER    CLEAR     67  60  76 CALM      30.05R
LAND O LAKES   CLEAR     65  61  88 CALM      30.05S
RHINELANDER    CLEAR     72  61  68 CALM      30.06R
PHILLIPS       CLEAR     71  64  79 CALM      30.01R
ANTIGO         PTCLDY    66  62  87 CALM      30.06R
TOMAHAWK       PTCLDY    66  61  83 CALM      30.04S
MERRILL        NOT AVBL
$$

WIZ013-073-280400-
NORTHEAST WISCONSIN

CITY           SKY/WX    TMP DP  RH WIND       PRES   REMARKS
IRON MOUNTAIN  CLEAR     69  62  78 CALM      30.02R
MARINETTE      CLEAR     72  63  73 CALM      30.00S
OCONTO         PTCLDY    68  68 100 CALM      30.01R
$$

WIZ017-030-035>037-045-280400-
CENTRAL WISCONSIN

CITY           SKY/WX    TMP DP  RH WIND       PRES   REMARKS
MEDFORD        CLEAR     70  64  79 SE3       30.02S
WAUSAU         PTCLDY    73  65  75 E6        30.01R
MOSINEE        CLEAR     72  64  78 SE5       30.04R
MARSHFIELD     CLEAR     74  62  66 SE3       30.01R
WISC RAPIDS    PTCLDY    74  62  66 SE6       30.02R
STEVENS POINT  PTCLDY    69  64  82 CALM      30.03R
WAUPACA        CLEAR     72  67  84 CALM      30.02R
SHAWANO        PTCLDY    75  65  70 S3        30.02R
CLINTONVILLE   PTCLDY    72  63  73 CALM      30.02R
$$

WIZ038-039-048-051-280400-
FOX VALLEY

CITY           SKY/WX    TMP DP  RH WIND       PRES   REMARKS
NWS GREEN BAY  MOCLDY    71  62  73 CALM      30.01R
APPLETON       MOCLDY    73  61  64 MISG      30.02R
OSHKOSH        CLEAR     70  62  76 S5        30.01R
FOND DU LAC    CLEAR     72  63  73 SE7       30.02R
$$

WIZ022-050-052-280400-
EAST CENTRAL WISCONSIN

CITY           SKY/WX    TMP DP  RH WIND       PRES   REMARKS
STURGEON BAY   CLEAR     70  59  68 CALM      30.04S
MANITOWOC      PTCLDY    68  64  87 MISG      30.02R
SHEBOYGAN      PTCLDY    67  63  87 CALM      30.02R
$$

LMZ563-521-522-541>543-280400-
LAKESHORE

STATION/POSITION TIME  TEMP    WIND        PRES    VSBY  WAVE
                       AIR SEA DIR/SP/G                  HT/PER
                 (UTC) (F)     (DEG/KT/KT) (MB)    (MI)  (FT/S)
SHEBOYGAN LKSHOR 0300   73     130/  4/  5 1016.5R
KEWAUNEE LKSHORE 0200   69     160/  2/  3 1015.9R
ALGOMA MARINA    0212             CALM       N/A
NORTHPORT PIER   0200   74     170/  2/  3 1015.9S
N MID LAKE BUOY  0250   72 70  230/  2/  2 1016.3R         0
S GREEN BAY BUOY 0230   78 77  150/  6/  8 1017.1F
CHAMBERS ISLAND  0200   71     140/  2/  3 1015.9R
MENOMINEE LKSHOR 0200   75     140/  6/  7 1016.6S
$$



USA.gov is the U.S. government's official web portal to all federal, state and local government web resources and services.